Home > Weather > Alert > Past weeks

Flag for Canada Past Weather in Alert, Nunavut, Canada — Yesterday and Last 2 Weeks

Now
32 °F

Chilly.


Feels Like: 29 °F
Forecast: 36 / 43 °F
Wind: 3 mph from North

Location: Kap Morris Jesup

Current Time: Jul 23, 2016 at 7:09:29 AM

Latest Report: Jul 23, 2016 at 5:00 AM


Visibility: N/A

Pressure: 29.96 "Hg

Humidity: 92%

Dew Point: 30 °F

Location of AlertLocation

Past Weather in Alert — Graph

°F

Alert Temperature Yesterday

Maximum temperature yesterday: 36 °F (at 12:00 AM)
Minimum temperature yesterday: 32 °F (at 7:00 PM)
Average temperature yesterday: 34 °F

High & Low Weather Summary for the Past Weeks

 TemperatureHumidityPressure
High47 °F (Jul 21, 5:00 AM)100% (Jul 8, 6:00 AM)30.28 "Hg (Jul 8, 6:00 AM)
Low31 °F (Jul 8, 5:00 AM)61% (Jul 17, 6:00 AM)29.60 "Hg (Jul 20, 2:00 AM)
Average36 °F87%29.94 "Hg
* Reported Jul 8 5:00 AM — Jul 23 5:00 AM, Alert, Weather by CustomWeather, © 2016

Note: Actual official high and low records may vary slightly from our data, if they occured in-between our weather recording intervals... More about our weather records

Advertising

Alert Weather History for the Previous 24 Hours

Scroll right to see more
 ConditionsComfort  
Time TempWeatherWind HumidityBarometerVisibility
5:00 AM
Sat, Jul 23
32 °FChilly.3 mph92%29.96 "HgN/A
4:00 AM33 °FChilly.3 mph91%29.95 "HgN/A
3:00 AM33 °FChilly.2 mph91%29.94 "HgN/A
2:00 AM32 °FChilly.3 mph95%29.93 "HgN/A
1:00 AM32 °FChilly.5 mph93%29.93 "HgN/A
12:00 AM33 °FChilly.5 mph90%29.93 "HgN/A
11:00 PM
Fri, Jul 22
33 °FChilly.3 mph91%29.93 "HgN/A
10:00 PM33 °FChilly.3 mph91%29.93 "HgN/A
9:00 PM34 °FChilly.1 mph87%29.94 "HgN/A
8:00 PM33 °FChilly.2 mph94%29.94 "HgN/A
7:00 PM32 °FChilly.2 mph94%29.93 "HgN/A
6:00 PM33 °FChilly.3 mph94%29.93 "HgN/A
5:00 PM33 °FChilly.3 mph94%29.92 "HgN/A
4:00 PM33 °FChilly.3 mph93%29.92 "HgN/A
3:00 PM33 °FChilly.3 mph93%29.90 "HgN/A
2:00 PM33 °FChilly.5 mph92%29.89 "HgN/A
1:00 PM33 °FChilly.7 mph93%29.88 "HgN/A
12:00 PM34 °FChilly.8 mph91%29.88 "HgN/A
11:00 AM34 °FChilly.7 mph90%29.88 "HgN/A
10:00 AM33 °FChilly.8 mph91%29.88 "HgN/A
9:00 AM33 °FChilly.7 mph90%29.89 "HgN/A
8:00 AM33 °FChilly.7 mph90%29.88 "HgN/A
7:00 AM33 °FChilly.7 mph91%29.89 "HgN/A
Weather by CustomWeather, © 2016

See weather overviewHow to use our weather pages